User: anonymous   Login
Location: Bletchingley
(51.2333°N, 0.1000°W)
Time: 15:20:37
(UTC+00:00)
Language:

SPOT 5 - Orbit

View from above orbital plane
View from above orbital plane
View from above satellite
View from above satellite

Ground track
Ground track

The orbit data is extracted from the following two-line orbital elements,

1 27421U 02021A   21163.10938371  .00000081  00000-0  28984-4 0  9990
2 27421  98.2298 233.8709 0134746 178.9343 181.2171 14.52102089996948
Epoch (UTC): 12 June 2021 02:37:30
Eccentricity: 0.0134746
inclination: 98.2298°
perigee height: 623 km
apogee height: 814 km
right ascension of ascending node: 233.8709°
argument of perigee: 178.9343°
revolutions per day: 14.52102089
mean anomaly at epoch: 181.2171°
orbit number at epoch: 99694

The dashed part of the orbit path shows where the satellite is in the earth's shadow,  

DLR